SCP
1 1 0 0 0 0 0 0 0 0 0 0 0 0 0 0 0 0 0 0 0 0 0 0 0 0 0 0 0 0 0 0 0 0 0 -0 0 0 0 0 0 0 0
1 1 0 1 0 0 0 0 0 0 0 0 0 0 0 0 0 0 0 0 0 0 0 0 0 0 0 0 0 0 0 0 0 -0 -0 0 0 0 0 0 0 0 0
1 0 1 1 0 0 0 0 0 0 0 0 0 0 0 0 0 0 0 0 0 0 0 0 0 0 0 0 0 0 0 0 0 0 0 0 0 0 0 0 0 0 0
1 1 1 0 0 0 0 0 0 0 0 0 0 0 0 0 0 0 0 0 0 0 0 0 0 0 0 0 0 0 0 -0 0 0 0 0 0 0 0 0 0 0 0
2 1 1 0 0 0 0 0 0 0 0 0 0 0 0 0 0 0 0 0 0 0 0 0 0 0 0 0 0 0 0 0 0 0 0 0 0 0 0 0 0 0 0
0 1 1 1 1 1 0 0 0 0 0 0 0 0 0 0 0 0 0 0 0 0 0 0 0 0 0 0 0 0 0 0 0 0 0 0 0 0 0 0 0 0 0
0 1 1 0 1 1 1 0 0 0 0 0 0 0 0 0 0 0 0 0 0 0 0 0 0 0 0 0 0 0 0 0 0 0 0 0 0 0 0 0 0 0 0
0 0 0 0 0 0 0 0 0 0 0 0 0 0 0 0 0 0 0 0 0 0 0 0 0 0 0 0 0 0 0 0 0 0 0 0 0 0 0 0 0 0 0
0 0 0 0 0 0 0 0 0 0 0 0 0 0 0 0 0 0 0 0 0 0 0 0 0 0 0 0 0 0 0 0 0 0 0 0 0 0 0 0 0 0 0
0 0 0 0 0 0 0 0 0 0 0 0 0 0 0 0 0 0 0 0 0 0 0 0 0 0 0 0 0 0 0 0 0 0 0 0 0 0 0 0 0 0 0
0 0 0 0 0 0 0 0 0 0 0 0 0 0 0 0 0 0 0 0 0 0 0 0 0 0 0 0 0 0 0 0 0 0 0 0 0 0 0 0 0 0 0
0 0 0 0 0 0 0 0 0 0 0 0 0 0 0 0 0 0 0 0 0 0 0 0 0 0 0 0 0 0 0 0 0 0 0 0 0 0 0 0 0 0 0
0 0 0 0 0 0 0 0 0 0 0 0 0 0 0 0 0 0 0 0 0 0 0 0 0 0 0 0 0 0 0 0 0 0 0 0 0 0 0 0 0 0 0
0 0 0 0 0 0 0 0 0 0 0 0 0 0 0 0 0 0 0 0 0 0 0 0 -0 -0 0 0 0 0 0 0 0 0 0 0 0 0 0 0 0 0 0
0 0 0 0 0 0 0 0 0 0 0 0 0 0 0 0 0 0 0 0 0 0 0 0 -0 0 0 0 0 0 0 0 0 0 0 0 0 0 0 0 0 0 0
0 0 0 0 0 0 0 0 0 0 0 0 0 0 0 0 0 0 0 0 0 0 0 0 0 0 0 0 0 0 0 0 0 0 0 0 0 0 0 0 0 0 0
0 0 0 0 0 0 0 0 0 0 0 0 0 0 0 0 0 0 0 0 0 0 0 0 0 0 0 0 0 0 0 0 0 0 0 0 0 0 0 0 0 0 0
0 0 0 0 0 0 0 0 0 0 0 0 0 0 0 0 0 0 0 0 0 -0 0 0 0 0 0 0 0 0 0 0 0 0 0 0 0 0 0 0 0 0 0
0 0 0 0 0 0 0 0 0 0 0 0 0 0 0 0 0 0 0 0 0 -0 0 0 0 0 0 0 0 0 0 0 0 0 0 0 0 0 0 0 0 0 0
0 0 0 0 0 -0 0 0 0 0 -0 0 0 -0 0 0 0 0 0 -0 0 0 0 0 0 0 0 0 0 0 0 0 0 0 0 0 0 0 0 0 0 0 0
0 -0 -0 -0 0 -0 0 0 0 0 0 -0 0 0 0 0 0 0 0 0 0 0 0 0 0 0 0 0 0 0 0 0 0 0 0 0 0 0 0 0 0 0 -0
-0 -0 -0 0 0 -0 0 0 0 0 0 -0 0 0 0 0 0 0 0 0 -0 0 0 0 0 0 0 0 -0 0 0 0 0 0 0 0 0 0 0 0 0 0 0
-0 -0 -0 -0 -0 -0 0 0 -0 -0 -0 0 -0 0 0 0 0 0 0 -0 0 0 0 0 0 0 0 0 -0 -0 0 0 0 0 0 0 0 0 0 0 0 0 0
-0 -0 -0 -0 -0 0 0 0 -0 -0 -0 -0 -0 -0 -0 -0 0 -0 -0 0 0 0 0 0 0 0 -0 -0 -0 -0 0 0 0 0 0 0 0 0 0 0 0 0 0
-0 -0 -0 -0 0 -0 0 -0 -0 0 -0 -0 -0 -0 -0 -0 -0 -0 0 0 0 0 0 0 0 -0 -0 -0 0 0 -0 -0 0 0 0 0 0 0 0 0 0 0 0
-0 -0 0 -0 0 -0 0 -0 0 0 0 0 0 -0 -0 -0 -0 0 0 0 0 0 0 0 -0 -0 -0 -0 -0 -0 -0 -0 0 -0 0 0 0 0 0 0 0 0 0
Wind_Speed_500mb
17 13 15 17 21 19 21 27 28 30 34 37 42 37 31 31 33 31 28 31 30 28 28 23 23 27 37 39 38 29 20 17 25 32 33 41 32 26 34 25 22 18 21
17 11 16 19 23 25 26 24 25 27 32 39 46 41 39 36 35 36 36 34 38 36 29 26 30 39 35 19 30 25 23 26 28 33 27 26 27 16 11 2 4 17 27
19 16 13 12 14 19 19 19 19 22 25 24 39 51 44 42 43 45 43 39 40 41 37 32 36 41 36 33 30 31 26 32 28 29 30 16 21 18 22 21 26 30 29
14 20 19 12 13 18 15 13 17 14 18 21 28 38 46 49 50 51 52 49 44 46 45 43 45 42 47 41 36 36 34 33 32 35 37 34 36 36 35 40 48 51 42
5 14 16 17 18 18 19 17 16 17 19 22 26 34 43 49 51 55 55 58 62 59 50 49 48 46 43 46 35 35 29 37 36 34 39 33 27 32 31 41 41 40 32
7 7 15 20 15 24 20 17 22 23 23 27 28 32 41 43 50 55 59 59 65 67 53 55 52 45 48 39 45 29 33 34 25 26 40 31 27 29 30 36 40 44 36
4 6 11 14 8 15 18 21 25 25 26 22 21 26 30 36 44 51 54 60 67 63 60 59 55 46 41 32 32 40 29 28 36 37 38 31 34 29 31 33 36 34 28
11 5 5 9 11 11 12 16 21 23 26 22 25 31 35 36 42 47 51 54 57 61 58 59 48 37 32 30 29 33 35 33 35 31 29 29 33 26 28 32 36 29 24
9 11 11 13 15 15 17 20 17 21 28 27 30 28 35 34 33 34 37 43 49 58 57 48 39 29 28 33 31 36 32 31 31 30 33 30 32 26 29 31 33 31 31
13 8 10 17 23 20 20 27 30 35 35 31 30 32 31 38 36 33 33 45 52 56 50 38 27 25 24 23 30 32 33 32 31 30 33 24 22 26 31 29 33 33 27
26 17 12 15 22 28 27 31 36 38 31 29 29 35 35 38 35 30 31 31 38 49 34 28 20 21 21 25 29 28 26 29 26 32 37 35 25 27 25 27 27 24 24
16 23 30 36 28 32 35 36 38 33 35 30 35 39 41 38 37 31 29 22 26 32 25 21 26 25 21 22 23 23 27 31 32 29 24 18 22 26 28 37 27 25 24
17 34 52 44 44 39 42 42 43 42 44 41 40 43 43 38 33 29 25 19 27 29 30 26 24 25 26 27 25 22 24 25 21 25 27 26 23 31 31 30 23 26 23
22 36 44 49 42 44 49 46 35 39 41 43 52 48 42 41 34 23 22 26 31 33 34 32 29 25 22 20 21 22 25 23 22 20 22 24 28 27 28 25 29 20 19
41 41 45 45 41 43 45 39 44 52 44 42 50 44 43 41 32 23 24 31 35 34 22 26 27 27 23 25 31 35 30 29 35 24 18 25 19 16 24 25 19 25 28
41 43 50 50 49 51 56 51 50 48 52 51 53 48 38 36 29 21 25 26 27 23 18 18 22 21 24 27 29 20 21 23 24 21 26 15 18 22 22 26 24 18 15
48 50 50 55 44 47 50 51 48 48 48 52 42 37 36 28 23 23 30 30 28 19 14 17 18 18 17 15 10 8 5 6 8 16 17 17 16 16 14 17 17 22 25
58 59 56 63 68 51 52 51 54 49 60 37 34 37 24 21 28 29 29 30 24 20 17 10 12 5 4 2 7 9 9 7 9 13 14 19 21 19 20 21 25 29 37
58 47 39 40 36 46 48 51 49 46 43 38 29 26 31 34 30 33 30 21 17 16 9 12 12 8 3 12 8 6 4 5 7 14 19 21 24 27 31 34 38 35 36
56 45 42 39 52 48 52 49 34 45 52 49 29 24 24 44 39 37 27 26 19 5 5 8 12 1 6 5 8 4 1 11 17 20 23 27 30 46 47 41 25 9 6
56 56 56 46 45 55 59 55 40 34 31 35 36 17 30 43 40 28 23 20 12 13 6 5 6 2 8 10 11 14 19 19 21 26 30 34 41 33 21 10 13 13 9
51 46 43 45 59 57 31 41 47 34 27 34 25 16 42 40 38 28 16 10 16 14 4 6 3 4 8 12 18 22 23 23 28 35 39 37 25 7 17 14 13 12 11
37 35 42 52 51 45 47 57 46 41 29 22 23 32 50 57 43 20 25 20 13 9 7 10 9 8 14 21 23 21 22 31 34 28 27 15 9 21 26 28 21 18 20
32 26 42 49 34 45 41 28 17 12 8 4 30 59 66 51 41 30 14 5 5 6 6 6 12 19 20 22 21 23 32 25 20 17 5 18 33 28 26 26 25 23 21
26 25 39 36 24 37 4 21 32 42 43 44 50 50 46 38 25 16 12 14 10 6 3 9 10 18 20 20 22 31 24 14 9 7 17 28 21 20 22 16 18 19 17
18 24 25 32 13 14 28 39 37 41 45 45 39 34 30 25 13 23 13 7 7 3 4 7 14 19 22 23 31 25 14 10 8 17 28 23 20 15 15 16 16 16 19
Wind_Direction_500mb
230 257 257 252 252 257 268 268 272 271 269 252 261 253 255 249 252 250 252 247 261 251 260 260 248 233 229 241 263 260 277 289 293 303 319 322 306 322 316 295 302 296 300
249 258 258 241 239 248 265 263 263 265 259 260 248 248 244 250 247 252 254 257 256 255 265 259 240 247 259 255 255 280 275 304 306 314 322 320 331 324 318 208 313 298 314
272 292 295 283 273 259 280 283 263 259 260 255 243 244 247 250 252 253 260 258 257 258 264 258 243 239 254 263 261 271 270 285 299 311 311 305 322 292 290 306 314 316 310
276 290 284 283 297 268 281 285 309 305 280 262 254 252 248 251 253 256 258 256 253 257 264 254 249 253 253 278 256 263 267 284 285 297 299 297 298 298 312 318 321 319 314
260 276 296 300 299 293 273 288 300 295 284 273 260 252 251 254 258 259 255 252 253 260 263 256 253 252 255 278 259 259 272 279 285 301 305 292 301 320 324 329 328 328 327
358 282 287 300 284 286 288 286 292 290 291 284 273 269 262 261 263 265 260 254 253 256 263 256 252 258 271 281 252 265 275 285 315 266 292 294 296 303 312 329 334 338 337
192 244 331 353 286 270 287 300 300 297 289 290 287 283 285 278 274 274 269 263 260 266 266 253 251 266 271 270 253 260 271 275 283 278 276 275 279 289 311 327 337 338 342
201 156 60 11 2 347 313 295 296 295 299 298 290 282 290 291 288 281 273 267 265 262 259 254 256 262 270 245 253 264 269 277 282 281 278 282 278 288 299 318 331 321 331
225 243 262 274 290 295 308 313 318 306 301 293 290 299 302 302 281 278 274 270 264 265 257 252 253 260 229 235 250 263 276 284 284 272 281 272 265 280 289 309 315 308 319
226 234 261 296 315 316 292 304 313 314 303 297 294 299 304 303 302 289 273 267 268 259 250 243 245 236 232 245 264 270 276 281 269 273 288 275 277 290 284 300 309 308 311
277 258 272 293 301 305 302 297 306 304 298 297 306 297 303 304 294 288 282 276 268 251 231 228 214 228 252 268 266 257 252 280 266 274 282 281 283 290 282 299 306 289 302
270 285 297 304 288 284 289 288 294 296 299 280 317 319 308 303 296 291 285 266 254 225 224 215 213 230 261 256 254 261 268 276 274 267 271 258 262 286 285 297 309 301 309
296 293 299 297 293 289 292 292 293 286 293 284 296 307 316 303 291 286 274 233 228 221 206 216 211 242 260 261 265 268 258 258 268 272 271 262 279 283 282 294 299 297 285
275 284 302 299 296 307 299 301 295 296 287 283 292 299 309 302 291 280 259 208 213 222 217 220 233 243 261 257 261 255 256 268 271 284 306 278 270 283 285 281 295 288 290
294 292 284 287 291 297 297 297 298 302 298 293 290 286 298 299 291 265 242 215 207 211 224 233 228 249 253 274 292 290 279 271 267 262 269 278 272 266 263 278 298 306 296
307 313 297 288 287 286 290 296 298 296 292 292 285 283 289 287 270 239 219 204 189 184 210 234 242 248 260 295 299 281 259 262 268 247 250 230 223 254 279 300 299 284 281
300 301 308 304 297 294 290 299 301 305 313 310 281 290 282 272 242 193 175 175 174 192 235 242 236 244 291 315 131 101 47 27 180 206 216 264 294 301 278 263 259 265 276
309 303 288 291 298 295 297 290 301 289 292 287 285 298 292 257 186 177 178 179 195 215 232 248 201 308 344 181 327 326 314 290 278 296 300 289 286 274 276 285 287 285 290
315 312 301 305 308 302 309 303 300 302 294 277 274 292 285 196 190 181 174 193 198 207 240 297 285 293 252 320 314 272 289 273 271 285 289 281 281 290 294 289 283 276 281
306 301 303 308 308 309 304 297 313 296 303 293 301 324 270 192 184 173 180 181 189 181 316 154 139 269 286 229 198 196 261 307 304 298 297 299 304 308 302 300 304 294 222
301 295 305 296 314 303 300 302 300 301 276 291 275 275 237 188 174 172 179 178 151 132 199 219 189 285 195 212 246 281 300 306 304 304 306 314 316 313 326 59 82 70 99
292 304 307 311 312 311 300 310 314 306 277 266 268 230 191 190 147 155 181 116 147 150 141 179 108 198 262 290 301 308 311 305 303 303 308 316 321 39 93 93 91 74 55
289 305 304 309 308 311 299 301 298 289 285 262 234 211 171 152 139 143 140 150 167 161 145 214 255 293 298 311 316 323 320 316 314 315 316 325 91 84 91 92 94 86 78
281 288 301 298 298 310 302 288 315 357 17 159 159 146 142 136 138 128 155 120 150 198 216 225 267 291 317 335 335 329 328 328 325 329 32 112 103 92 85 82 67 70 50
274 290 316 306 313 314 137 92 92 99 106 113 117 121 122 127 129 126 167 155 149 163 267 266 297 321 323 328 336 337 339 344 358 91 126 113 105 95 86 75 64 57 65
258 300 323 337 310 121 113 110 105 105 107 106 109 113 122 131 134 153 164 145 169 196 171 261 307 313 326 332 335 342 354 5 75 122 123 110 104 91 102 96 77 78 82
Wind_Speed_850mb
17 13 15 17 21 19 21 27 28 30 34 37 42 37 31 31 33 31 28 31 30 28 28 23 23 27 37 39 38 29 20 17 25 32 33 41 32 26 34 25 22 18 21
17 11 16 19 23 25 26 24 25 27 32 39 46 41 39 36 35 36 36 34 38 36 29 26 30 39 35 19 30 25 23 26 28 33 27 26 27 16 11 2 4 17 27
19 16 13 12 14 19 19 19 19 22 25 24 39 51 44 42 43 45 43 39 40 41 37 32 36 41 36 33 30 31 26 32 28 29 30 16 21 18 22 21 26 30 29
14 20 19 12 13 18 15 13 17 14 18 21 28 38 46 49 50 51 52 49 44 46 45 43 45 42 47 41 36 36 34 33 32 35 37 34 36 36 35 40 48 51 42
5 14 16 17 18 18 19 17 16 17 19 22 26 34 43 49 51 55 55 58 62 59 50 49 48 46 43 46 35 35 29 37 36 34 39 33 27 32 31 41 41 40 32
7 7 15 20 15 24 20 17 22 23 23 27 28 32 41 43 50 55 59 59 65 67 53 55 52 45 48 39 45 29 33 34 25 26 40 31 27 29 30 36 40 44 36
4 6 11 14 8 15 18 21 25 25 26 22 21 26 30 36 44 51 54 60 67 63 60 59 55 46 41 32 32 40 29 28 36 37 38 31 34 29 31 33 36 34 28
11 5 5 9 11 11 12 16 21 23 26 22 25 31 35 36 42 47 51 54 57 61 58 59 48 37 32 30 29 33 35 33 35 31 29 29 33 26 28 32 36 29 24
9 11 11 13 15 15 17 20 17 21 28 27 30 28 35 34 33 34 37 43 49 58 57 48 39 29 28 33 31 36 32 31 31 30 33 30 32 26 29 31 33 31 31
13 8 10 17 23 20 20 27 30 35 35 31 30 32 31 38 36 33 33 45 52 56 50 38 27 25 24 23 30 32 33 32 31 30 33 24 22 26 31 29 33 33 27
26 17 12 15 22 28 27 31 36 38 31 29 29 35 35 38 35 30 31 31 38 49 34 28 20 21 21 25 29 28 26 29 26 32 37 35 25 27 25 27 27 24 24
16 23 30 36 28 32 35 36 38 33 35 30 35 39 41 38 37 31 29 22 26 32 25 21 26 25 21 22 23 23 27 31 32 29 24 18 22 26 28 37 27 25 24
17 34 52 44 44 39 42 42 43 42 44 41 40 43 43 38 33 29 25 19 27 29 30 26 24 25 26 27 25 22 24 25 21 25 27 26 23 31 31 30 23 26 23
22 36 44 49 42 44 49 46 35 39 41 43 52 48 42 41 34 23 22 26 31 33 34 32 29 25 22 20 21 22 25 23 22 20 22 24 28 27 28 25 29 20 19
41 41 45 45 41 43 45 39 44 52 44 42 50 44 43 41 32 23 24 31 35 34 22 26 27 27 23 25 31 35 30 29 35 24 18 25 19 16 24 25 19 25 28
41 43 50 50 49 51 56 51 50 48 52 51 53 48 38 36 29 21 25 26 27 23 18 18 22 21 24 27 29 20 21 23 24 21 26 15 18 22 22 26 24 18 15
48 50 50 55 44 47 50 51 48 48 48 52 42 37 36 28 23 23 30 30 28 19 14 17 18 18 17 15 10 8 5 6 8 16 17 17 16 16 14 17 17 22 25
58 59 56 63 68 51 52 51 54 49 60 37 34 37 24 21 28 29 29 30 24 20 17 10 12 5 4 2 7 9 9 7 9 13 14 19 21 19 20 21 25 29 37
58 47 39 40 36 46 48 51 49 46 43 38 29 26 31 34 30 33 30 21 17 16 9 12 12 8 3 12 8 6 4 5 7 14 19 21 24 27 31 34 38 35 36
56 45 42 39 52 48 52 49 34 45 52 49 29 24 24 44 39 37 27 26 19 5 5 8 12 1 6 5 8 4 1 11 17 20 23 27 30 46 47 41 25 9 6
56 56 56 46 45 55 59 55 40 34 31 35 36 17 30 43 40 28 23 20 12 13 6 5 6 2 8 10 11 14 19 19 21 26 30 34 41 33 21 10 13 13 9
51 46 43 45 59 57 31 41 47 34 27 34 25 16 42 40 38 28 16 10 16 14 4 6 3 4 8 12 18 22 23 23 28 35 39 37 25 7 17 14 13 12 11
37 35 42 52 51 45 47 57 46 41 29 22 23 32 50 57 43 20 25 20 13 9 7 10 9 8 14 21 23 21 22 31 34 28 27 15 9 21 26 28 21 18 20
32 26 42 49 34 45 41 28 17 12 8 4 30 59 66 51 41 30 14 5 5 6 6 6 12 19 20 22 21 23 32 25 20 17 5 18 33 28 26 26 25 23 21
26 25 39 36 24 37 4 21 32 42 43 44 50 50 46 38 25 16 12 14 10 6 3 9 10 18 20 20 22 31 24 14 9 7 17 28 21 20 22 16 18 19 17
18 24 25 32 13 14 28 39 37 41 45 45 39 34 30 25 13 23 13 7 7 3 4 7 14 19 22 23 31 25 14 10 8 17 28 23 20 15 15 16 16 16 19
Wind_Direction_850mb
230 257 257 252 252 257 268 268 272 271 269 252 261 253 255 249 252 250 252 247 261 251 260 260 248 233 229 241 263 260 277 289 293 303 319 322 306 322 316 295 302 296 300
249 258 258 241 239 248 265 263 263 265 259 260 248 248 244 250 247 252 254 257 256 255 265 259 240 247 259 255 255 280 275 304 306 314 322 320 331 324 318 208 313 298 314
272 292 295 283 273 259 280 283 263 259 260 255 243 244 247 250 252 253 260 258 257 258 264 258 243 239 254 263 261 271 270 285 299 311 311 305 322 292 290 306 314 316 310
276 290 284 283 297 268 281 285 309 305 280 262 254 252 248 251 253 256 258 256 253 257 264 254 249 253 253 278 256 263 267 284 285 297 299 297 298 298 312 318 321 319 314
260 276 296 300 299 293 273 288 300 295 284 273 260 252 251 254 258 259 255 252 253 260 263 256 253 252 255 278 259 259 272 279 285 301 305 292 301 320 324 329 328 328 327
358 282 287 300 284 286 288 286 292 290 291 284 273 269 262 261 263 265 260 254 253 256 263 256 252 258 271 281 252 265 275 285 315 266 292 294 296 303 312 329 334 338 337
192 244 331 353 286 270 287 300 300 297 289 290 287 283 285 278 274 274 269 263 260 266 266 253 251 266 271 270 253 260 271 275 283 278 276 275 279 289 311 327 337 338 342
201 156 60 11 2 347 313 295 296 295 299 298 290 282 290 291 288 281 273 267 265 262 259 254 256 262 270 245 253 264 269 277 282 281 278 282 278 288 299 318 331 321 331
225 243 262 274 290 295 308 313 318 306 301 293 290 299 302 302 281 278 274 270 264 265 257 252 253 260 229 235 250 263 276 284 284 272 281 272 265 280 289 309 315 308 319
226 234 261 296 315 316 292 304 313 314 303 297 294 299 304 303 302 289 273 267 268 259 250 243 245 236 232 245 264 270 276 281 269 273 288 275 277 290 284 300 309 308 311
277 258 272 293 301 305 302 297 306 304 298 297 306 297 303 304 294 288 282 276 268 251 231 228 214 228 252 268 266 257 252 280 266 274 282 281 283 290 282 299 306 289 302
270 285 297 304 288 284 289 288 294 296 299 280 317 319 308 303 296 291 285 266 254 225 224 215 213 230 261 256 254 261 268 276 274 267 271 258 262 286 285 297 309 301 309
296 293 299 297 293 289 292 292 293 286 293 284 296 307 316 303 291 286 274 233 228 221 206 216 211 242 260 261 265 268 258 258 268 272 271 262 279 283 282 294 299 297 285
275 284 302 299 296 307 299 301 295 296 287 283 292 299 309 302 291 280 259 208 213 222 217 220 233 243 261 257 261 255 256 268 271 284 306 278 270 283 285 281 295 288 290
294 292 284 287 291 297 297 297 298 302 298 293 290 286 298 299 291 265 242 215 207 211 224 233 228 249 253 274 292 290 279 271 267 262 269 278 272 266 263 278 298 306 296
307 313 297 288 287 286 290 296 298 296 292 292 285 283 289 287 270 239 219 204 189 184 210 234 242 248 260 295 299 281 259 262 268 247 250 230 223 254 279 300 299 284 281
300 301 308 304 297 294 290 299 301 305 313 310 281 290 282 272 242 193 175 175 174 192 235 242 236 244 291 315 131 101 47 27 180 206 216 264 294 301 278 263 259 265 276
309 303 288 291 298 295 297 290 301 289 292 287 285 298 292 257 186 177 178 179 195 215 232 248 201 308 344 181 327 326 314 290 278 296 300 289 286 274 276 285 287 285 290
315 312 301 305 308 302 309 303 300 302 294 277 274 292 285 196 190 181 174 193 198 207 240 297 285 293 252 320 314 272 289 273 271 285 289 281 281 290 294 289 283 276 281
306 301 303 308 308 309 304 297 313 296 303 293 301 324 270 192 184 173 180 181 189 181 316 154 139 269 286 229 198 196 261 307 304 298 297 299 304 308 302 300 304 294 222
301 295 305 296 314 303 300 302 300 301 276 291 275 275 237 188 174 172 179 178 151 132 199 219 189 285 195 212 246 281 300 306 304 304 306 314 316 313 326 59 82 70 99
292 304 307 311 312 311 300 310 314 306 277 266 268 230 191 190 147 155 181 116 147 150 141 179 108 198 262 290 301 308 311 305 303 303 308 316 321 39 93 93 91 74 55
289 305 304 309 308 311 299 301 298 289 285 262 234 211 171 152 139 143 140 150 167 161 145 214 255 293 298 311 316 323 320 316 314 315 316 325 91 84 91 92 94 86 78
281 288 301 298 298 310 302 288 315 357 17 159 159 146 142 136 138 128 155 120 150 198 216 225 267 291 317 335 335 329 328 328 325 329 32 112 103 92 85 82 67 70 50
274 290 316 306 313 314 137 92 92 99 106 113 117 121 122 127 129 126 167 155 149 163 267 266 297 321 323 328 336 337 339 344 358 91 126 113 105 95 86 75 64 57 65
258 300 323 337 310 121 113 110 105 105 107 106 109 113 122 131 134 153 164 145 169 196 171 261 307 313 326 332 335 342 354 5 75 122 123 110 104 91 102 96 77 78 82